User: anonymous   Login
Location: Unspecified
(0.0000°N, 0.0000°E)
Time: 02:06:17
(UTC+00:00)
Language:

STARLINK-11273 [DTC] - Orbit

View from above orbital plane
View from above orbital plane
View from above satellite
View from above satellite

Ground track
Ground track

The orbit is defined by the following mean orbital elements,

1 60913U          26145.33525102 +.00000000 +00000-0 +40990-5 0 00008
2 60913  53.1589 113.3380 0001014  84.8389 275.2745 15.69714931    05
Epoch (UTC): 25 May 2026 08:02:45
Eccentricity: 0.0001014
inclination: 53.1589°
perigee height: 359 km
apogee height: 360 km
right ascension of ascending node: 113.3380°
argument of perigee: 84.8389°
revolutions per day: 15.69714931
mean anomaly at epoch: 275.2745°

The dashed part of the orbit path shows where the satellite is in the earth's shadow,  

DLR